Location: Unspecified
(0.0000°N, 0.0000°E)
Time: 06:43:10
(UTC+00:00)

KAITUO 1B - Visible Passes

Search period start: 23 June 2018 00:00
Search period end: 03 July 2018 00:00
Orbit: 499 x 520 km, 97.5° (Epoch: 22 June)

Date Brightness Start Highest point End Pass type
(mag) Time Alt. Az. Time Alt. Az. Time Alt. Az.
23 Jun ? 05:30:25 10° NE 05:33:47 31° ESE 05:37:10 10° SSE visible
24 Jun ? 05:14:34 10° ENE 05:17:06 17° ESE 05:19:39 10° SE visible
24 Jun ? 18:40:00 10° SW 18:42:28 17° WSW 18:44:57 10° WNW visible
25 Jun ? 18:22:29 10° SSW 18:25:47 31° WSW 18:29:03 10° NW visible
29 Jun ? 05:24:12 10° NE 05:27:19 24° E 05:30:26 10° SSE visible
29 Jun ? 18:51:11 10° SW 18:52:39 12° WSW 18:54:06 10° WNW visible
30 Jun ? 05:08:40 10° ENE 05:10:37 14° ESE 05:12:35 10° SE visible
30 Jun ? 18:33:04 10° SSW 18:35:57 22° WSW 18:38:50 10° NW visible
